Weather History for Hatteras, NC

Change the Weather History Date:

Friday, January 17, 2014

  Actual Average Record
Temperature  
Mean Temperature 49 °F 45 °F  
Max Temperature 60 °F 52 °F 71 °F (1913)
Min Temperature 38 °F 39 °F 13 °F (1977)
Degree Days  
Heating Degree Days 16 20  
Month to date heating degree days 268 333  
Since 1 July heating degree days 970 1140  
Cooling Degree Days 0 0  
Month to date cooling degree days 0 0  
Year to date cooling degree days 0 0  
Moisture  
Dew Point 37 °F    
Average Humidity 61    
Maximum Humidity 82    
Minimum Humidity 39    
Precipitation  
Precipitation 0.00 in 0.17 in 1.50 in (2010)
Month to date precipitation 4.09 2.90  
Year to date precipitation 4.09 2.90  
Snow  
Snow 0.00 in - - ()
Month to date snowfall T  
Since 1 July snowfall T  
Snow Depth 0.00 in    
Sea Level Pressure  
Sea Level Pressure 30.02 in    
Wind  
Wind Speed 11 mph (WSW)    
Max Wind Speed 21 mph    
Max Gust Speed 28 mph    
Visibility 10 miles    
Events      
T = Trace of Precipitation, MM = Missing Value Source: NWS Daily Summary

Daily Weather History Graph

Daily Weather History Graph

Search for Another Location

Airport:

Trip Planner

Search our weather history database for the weather conditions in past years. The results will help you decide how hot, cold, wet, or windy it might be!

Date:

Astronomy

Jan. 17, 2014 Rise Set
Actual Time 7:09 AM EST 5:15 PM EST
Civil Twilight 6:42 AM EST 5:43 PM EST
Nautical Twilight 6:11 AM EST 6:14 PM EST
Astronomical Twilight 5:40 AM EST 6:44 PM EST
Moon 6:54 PM EST (1/17) 7:41 AM EST (1/17)
Length of Visible Light 11h 00m
Length of Day
10h 05m
Full, 98% of the Moon is Illuminated
Jan 17
Full
Jan 24
Last Quarter
Jan 30
New
Feb 6
First Quarter
Feb 14
Full

Hourly Weather History & Observations

Time (EST) Temp. Windchill Dew Point Humidity Pressure Visibility Wind Dir Wind Speed Gust Speed Precip Events Conditions
12:51 AM 39.0 °F 34.0 °F 33.1 °F 79% 30.05 in 10.0 mi WNW 6.9 mph - N/A   Clear
1:51 AM 39.0 °F 34.8 °F 30.9 °F 73% 30.05 in 10.0 mi NW 5.8 mph - N/A   Clear
2:51 AM 39.9 °F 36.7 °F 33.1 °F 77% 30.05 in 10.0 mi West 4.6 mph - N/A   Clear
3:51 AM 39.9 °F 35.1 °F 32.0 °F 73% 30.06 in 10.0 mi West 6.9 mph - N/A   Clear
4:51 AM 39.9 °F 36.7 °F 33.1 °F 77% 30.07 in 10.0 mi West 4.6 mph - N/A   Clear
5:51 AM 37.9 °F 33.5 °F 32.0 °F 79% 30.07 in 10.0 mi West 5.8 mph - N/A   Clear
6:51 AM 37.9 °F 33.5 °F 30.9 °F 76% 30.08 in 10.0 mi West 5.8 mph - N/A   Clear
8:51 AM 45.0 °F 41.2 °F 28.0 °F 52% 30.11 in 10.0 mi West 6.9 mph - N/A   Clear
9:51 AM 48.0 °F - 30.0 °F 50% 30.10 in 10.0 mi SW 9.2 mph - N/A   Clear
10:51 AM 50.0 °F - 27.0 °F 41% 30.10 in 10.0 mi WSW 11.5 mph 18.4 mph N/A   Clear
11:51 AM 51.1 °F - 30.9 °F 46% 30.07 in 10.0 mi WSW 10.4 mph - N/A   Clear
12:51 PM 52.0 °F - 36.0 °F 54% 30.04 in 10.0 mi West 6.9 mph - N/A   Clear
1:51 PM 53.1 °F - 37.0 °F 55% 30.02 in 10.0 mi WSW 11.5 mph - N/A   Clear
2:51 PM 54.0 °F - 39.0 °F 57% 30.00 in 10.0 mi SW 11.5 mph 20.7 mph N/A   Clear
3:51 PM 54.0 °F - 37.9 °F 55% 29.99 in 10.0 mi SW 13.8 mph - N/A   Clear
4:51 PM 54.0 °F - 39.9 °F 59% 29.99 in 10.0 mi SW 13.8 mph 23.0 mph N/A   Clear
5:51 PM 55.0 °F - 39.9 °F 57% 29.98 in 10.0 mi SW 13.8 mph 25.3 mph N/A   Clear
6:51 PM 55.9 °F - 43.0 °F 62% 29.97 in 10.0 mi SW 19.6 mph 27.6 mph N/A   Clear
7:51 PM 57.9 °F - 46.0 °F 65% 29.96 in 10.0 mi SW 17.3 mph 26.5 mph N/A   Clear
8:51 PM 59.0 °F - 46.0 °F 62% 29.95 in 10.0 mi SW 17.3 mph 23.0 mph N/A   Clear
9:51 PM 59.0 °F - 46.9 °F 64% 29.94 in 10.0 mi SW 16.1 mph 23.0 mph N/A   Partly Cloudy
10:51 PM 60.1 °F - 48.0 °F 64% 29.92 in 10.0 mi WSW 17.3 mph 25.3 mph N/A   Scattered Clouds
11:51 PM 55.0 °F - 46.9 °F 74% 29.88 in 10.0 mi West 9.2 mph - N/A   Clear